Weather History for KFBG - September, 2013

Change the Weather History Date:

Tuesday, September 24, 2013

  Actual Average Record
Temperature  
Mean Temperature 64 °F -  
Max Temperature 77 °F 77 °F 92 °F (2010)
Min Temperature 52 °F 60 °F 50 °F (1999)
Growing Degree Days 14 (Base 50)    
Moisture  
Dew Point 56 °F    
Average Humidity 79    
Maximum Humidity 99    
Minimum Humidity 45    
Precipitation  
Precipitation 0.00 in - - ()
Sea Level Pressure  
Sea Level Pressure 30.04 in    
Wind  
Wind Speed 0 mph (North)    
Max Wind Speed 0 mph    
Max Gust Speed -    
Visibility 10 miles    
Events      
Averages and records for this station are not official NWS values.
T = Trace of Precipitation, MM = Missing Value Source: NWS Daily Summary

Daily Weather History Graph

Daily Weather History Graph

Search for Another Location

Airport or City:

Trip Planner

Search our weather history database for the weather conditions in past years. The results will help you decide how hot, cold, wet, or windy it might be!

Date:

Astronomy

Sep. 24, 2013 Rise Set
Actual Time 7:05 AM EDT 7:09 PM EDT
Civil Twilight 6:40 AM EDT 7:34 PM EDT
Nautical Twilight 6:10 AM EDT 8:04 PM EDT
Astronomical Twilight 5:40 AM EDT 8:33 PM EDT
Moon 10:37 PM EDT (9/24) 12:07 PM EDT (9/24)
Length of Visible Light 12h 54m
Length of Day
12h 03m
Waning Gibbous, 73% of the Moon is Illuminated
Sep 24
Waning Gibbous
Sep 26
Last Quarter
Oct 4
New
Oct 11
First Quarter
Oct 18
Full

Hourly Weather History & Observations

Time (EDT) Temp. Dew Point Humidity Pressure Visibility Wind Dir Wind Speed Gust Speed Precip Events Conditions
12:55 AM 55.4 °F 55.2 °F 99% 30.08 in 10.0 mi Calm Calm - N/A   Clear
12:58 AM 55.4 °F 55.2 °F 99% 30.08 in 10.0 mi Calm Calm - N/A   Clear
1:55 AM 54.5 °F 54.3 °F 99% 30.08 in 10.0 mi Calm Calm - N/A   Clear
1:58 AM 54.5 °F 54.3 °F 99% 30.08 in 10.0 mi Calm Calm - N/A   Clear
2:58 AM 54.0 °F 53.6 °F 99% 30.09 in 10.0 mi Calm Calm - N/A   Clear
3:58 AM 53.4 °F 53.1 °F 99% 30.08 in 10.0 mi Calm Calm - N/A   Clear
4:58 AM 52.7 °F 52.5 °F 99% 30.08 in 10.0 mi Calm Calm - N/A   Scattered Clouds
5:58 AM 54.3 °F 54.0 °F 99% 30.09 in 10.0 mi Calm Calm - N/A   Overcast
6:58 AM 54.7 °F 54.3 °F 99% 30.09 in 10.0 mi Calm Calm - N/A   Partly Cloudy
7:58 AM 55.6 °F 55.4 °F 99% 30.10 in 10.0 mi Calm Calm - N/A   Clear
8:58 AM 60.1 °F 59.5 °F 98% 30.11 in 10.0 mi Calm Calm - N/A   Clear
9:58 AM 65.3 °F 57.4 °F 76% 30.11 in 10.0 mi Calm Calm - N/A   Clear
10:58 AM 69.4 °F 54.9 °F 60% 30.11 in 10.0 mi Calm Calm - N/A   Mostly Cloudy
11:58 AM 72.5 °F 55.9 °F 56% 30.09 in 10.0 mi Calm Calm - N/A   Clear
12:58 PM 73.8 °F 55.0 °F 52% 30.06 in 10.0 mi Calm Calm - N/A   Clear
1:58 PM 76.1 °F 55.6 °F 49% 30.03 in 10.0 mi Calm Calm - N/A   Partly Cloudy
2:58 PM 75.6 °F 55.9 °F 50% 30.01 in 10.0 mi Calm Calm - N/A   Mostly Cloudy
3:58 PM 77.9 °F 55.0 °F 45% 29.99 in 10.0 mi Calm Calm - N/A   Overcast
4:58 PM 74.1 °F 55.9 °F 53% 29.98 in 10.0 mi Calm Calm - N/A   Partly Cloudy
5:58 PM 75.7 °F 55.8 °F 50% 29.97 in 10.0 mi Calm Calm - N/A   Clear
6:58 PM 71.1 °F 57.6 °F 62% 29.97 in 10.0 mi Calm Calm - N/A   Clear
7:58 PM 67.8 °F 61.2 °F 79% 29.98 in 10.0 mi Calm Calm - N/A   Scattered Clouds
8:58 PM 66.9 °F 62.2 °F 85% 29.98 in 10.0 mi Calm Calm - N/A   Overcast
9:58 PM 65.7 °F 62.2 °F 89% 29.98 in 10.0 mi Calm Calm - N/A   Mostly Cloudy
10:58 PM 66.0 °F 59.5 °F 80% 29.98 in 10.0 mi Calm Calm - N/A   Mostly Cloudy
11:58 PM 63.3 °F 59.5 °F 87% 29.97 in 10.0 mi Calm Calm - N/A   Clear